Location: Eastlake (historical)
(39.0077°N, 122.6678°W)
Time: 09:24:47
(UTC+00:00)

Cosmos 1766 Rocket - Pass Details

Date: 25 November 2020
Orbit: 605 x 633 km, 82.5° (Epoch: 26 January)

Event Time Altitude Azimuth Distance (km) Brightness Sun altitude
Rises 13:21:21 0° 190° (S) 2,907 7.0 -19.9°
Reaches altitude 10° 13:23:35 10° 192° (SSW) 2,006 6.2 -19.4°
Maximum altitude 13:28:01 75° 277° (W) 660 3.5 -18.6°
Drops below altitude 10° 13:32:31 10° 4° (N) 2,024 6.1 -17.7°
Sets 13:34:47 0° 6° (N) 2,935 7.0 -17.3°
